Hourly Data Report for July 15, 2016

TORONTO CITY
ONTARIO

43°40'00.000" N
79°24'00.000" W
112.50 m
6158355
71508
XTO

Download Data

Hourly Data (July 2016)
Hourly Data Report for July 15, 2016
TIME
LST
Temp Definition
°C
Dew Point Definition
°C
Rel Hum Definition
%
Precip. Amount Definition
mm

Wind Dir Definition
10's deg

Wind Spd Definition
km/h
Visibility Definition
km
Stn Press Definition
kPa
Hmdx Definition


Wind Chill Definition


Weather Definition


00:00 19.9 18.6 93 0.0 LegendMM LegendMM   99.53     LegendNANA
01:00 19.9 18.7 93 0.0 LegendMM LegendMM   99.51     LegendNANA
02:00 19.6 18.5 93 0.0 LegendMM LegendMM   99.49     LegendNANA
03:00 19.4 18.3 93 0.0 LegendMM LegendMM   99.52     LegendNANA
04:00 19.0 17.9 93 0.0 LegendMM LegendMM   99.57     LegendNANA
05:00 18.7 17.6 93 0.0 LegendMM LegendMM   99.60     LegendNANA
06:00 18.8 17.7 93 0.0 LegendMM LegendMM   99.61     LegendNANA
07:00 20.5 17.2 81 0.0 LegendMM LegendMM   99.62 26   LegendNANA
08:00 23.5 17.2 68 0.0 LegendMM LegendMM   99.64 29   LegendNANA
09:00 24.7 17.6 65 0.0 LegendMM LegendMM   99.63 30   LegendNANA
10:00 27.1 14.8 47 0.0 LegendMM LegendMM   99.64 31   LegendNANA
11:00 27.4 15.1 47 0.0 LegendMM LegendMM   99.65 31   LegendNANA
12:00 26.0 15.2 52 0.0 LegendMM LegendMM   99.66 30   LegendNANA
13:00 24.6 15.9 59 0.0 LegendMM LegendMM   99.73 29   LegendNANA
14:00 26.1 15.3 51 0.0 LegendMM LegendMM   99.73 30   LegendNANA
15:00 25.8 14.0 48 0.0 LegendMM LegendMM   99.77 29   LegendNANA
16:00 25.9 12.2 43 0.0 LegendMM LegendMM   99.82 28   LegendNANA
17:00 24.2 13.5 51 0.0 LegendMM LegendMM   99.87 27   LegendNANA
18:00 22.8 13.1 54 0.0 LegendMM LegendMM   99.91 26   LegendNANA
19:00 22.0 13.0 57 0.0 LegendMM LegendMM   99.93 25   LegendNANA
20:00 20.6 12.9 61 0.0 LegendMM LegendMM   99.98     LegendNANA
21:00 20.1 12.8 63 0.0 LegendMM LegendMM   100.04     LegendNANA
22:00 17.7 13.1 74 0.0 LegendMM LegendMM   100.11     LegendNANA
23:00 17.5 12.2 71 0.0 LegendMM LegendMM   100.22     LegendNANA

Notes on Data Quality.

Legend

  • E = Estimated
  • M = Missing
  • NA = Not Available*
  • [empty] = Indicates an unobserved value
Date modified: